Weather History for EBFN - January, 2013

Change the Weather History Date:

Wednesday, January 9, 2013

  Actual Average Record
Temperature  
Mean Temperature 41 °F -  
Max Temperature 47 °F 42 °F 57 °F (1998)
Min Temperature 35 °F 36 °F 17 °F (2009)
Degree Days  
Heating Degree Days 24    
Moisture  
Dew Point 42 °F    
Average Humidity 96    
Maximum Humidity 100    
Minimum Humidity 85    
Precipitation  
Precipitation 0.08 in - - ()
Sea Level Pressure  
Sea Level Pressure 30.15 in    
Wind  
Wind Speed 8 mph ()    
Max Wind Speed 13 mph    
Max Gust Speed -    
Visibility 3.6 miles    
Events Rain    
Averages and records for this station are not official NWS values.
T = Trace of Precipitation, MM = Missing Value Source: Averaged Metar Reports

Daily Weather History Graph

Daily Weather History Graph

Search for Another Location

Airport or City:

Trip Planner

Search our weather history database for the weather conditions in past years. The results will help you decide how hot, cold, wet, or windy it might be!

Date:

Astronomy

Jan. 09, 2013 Rise Set
Actual Time 8:50 AM CET 5:03 PM CET
Civil Twilight 8:11 AM CET 5:41 PM CET
Nautical Twilight 7:29 AM CET 6:23 PM CET
Astronomical Twilight 6:49 AM CET 7:03 PM CET
Moon 6:13 AM CET (1/9) 2:48 PM CET (1/9)
Length of Visible Light 9h 29m
Length of Day
8h 12m
Waning Crescent, 8% of the Moon is Illuminated
Jan 9
Waning Crescent
Jan 11
New
Jan 19
First Quarter
Jan 27
Full
Feb 3
Last Quarter

Hourly Weather History & Observations

Time (CET) Temp. Windchill Dew Point Humidity Pressure Visibility Wind Dir Wind Speed Gust Speed Precip Events Conditions
12:25 AM 44.6 °F 39.2 °F 42.8 °F 93% 30.24 in 3.1 mi SSW 10.4 mph - N/A   Mostly Cloudy
12:55 AM 44.6 °F 39.2 °F 42.8 °F 93% 30.24 in 3.1 mi SSW 10.4 mph - N/A   Mostly Cloudy
1:00 AM 45 °F - 43 °F 88% 30.26 in 3 mi SSW 11.2 mph - -   Mist
1:25 AM 44.6 °F 39.2 °F 42.8 °F 93% 30.24 in 3.7 mi SSW 10.4 mph - N/A   Mostly Cloudy
1:54 AM 44.6 °F 39.2 °F 42.8 °F 93% 30.24 in 3.1 mi SSW 10.4 mph - N/A   Mostly Cloudy
1:55 AM 44.6 °F 39.2 °F 42.8 °F 93% 30.24 in 3.1 mi SSW 10.4 mph - N/A   Mostly Cloudy
2:25 AM 44.6 °F 38.8 °F 42.8 °F 93% 30.24 in 3.7 mi SSW 11.5 mph - N/A   Mostly Cloudy
2:55 AM 44.6 °F 39.2 °F 42.8 °F 93% 30.21 in 3.7 mi SSW 10.4 mph - N/A   Mostly Cloudy
3:25 AM - - - N/A% 30.21 in 3.1 mi SSW 10.4 mph - N/A   Mostly Cloudy
3:55 AM 44.6 °F 39.2 °F 42.8 °F 93% 30.21 in 3.1 mi SSW 10.4 mph - N/A   Mostly Cloudy
4:00 AM 44 °F - 42 °F 92% 30.23 in 3 mi SSW 11.2 mph - -   Mist
4:25 AM 44.6 °F 39.2 °F 42.8 °F 93% 30.21 in - SSW 10.4 mph - N/A   Mostly Cloudy
4:55 AM 44.6 °F 39.2 °F 42.8 °F 93% 30.21 in - SSW 10.4 mph - N/A   Mostly Cloudy
5:25 AM 44.6 °F 38.4 °F 42.8 °F 93% 30.18 in 2.5 mi SSW 12.7 mph - N/A   Mostly Cloudy
5:32 AM 44.6 °F 38.8 °F 42.8 °F 93% 30.18 in - SSW 11.5 mph - N/A   Light Drizzle
5:55 AM 42.8 °F 36.6 °F 42.8 °F 100% 30.18 in 1.2 mi SSW 11.5 mph - N/A   Light Drizzle
6:03 AM 42.8 °F 37.0 °F 42.8 °F 100% 30.18 in 0.9 mi SSW 10.4 mph - N/A   Drizzle
6:25 AM 42.8 °F 37.0 °F 42.8 °F 100% 30.18 in 0.9 mi SSW 10.4 mph - N/A   Drizzle
6:55 AM 42.8 °F 37.5 °F 42.8 °F 100% 30.15 in 0.9 mi SSW 9.2 mph - N/A   Drizzle
7:00 AM 43 °F - 43 °F 100% 30.18 in 1 mi SSW 8.9 mph - - Rain Drizzle
7:25 AM 42.8 °F 37.5 °F 42.8 °F 100% 30.15 in 0.9 mi SSW 9.2 mph - N/A   Drizzle
7:45 AM 42.8 °F 37.5 °F 42.8 °F 100% 30.15 in 1.0 mi SSW 9.2 mph - N/A   Drizzle
7:55 AM 42.8 °F 37.5 °F 42.8 °F 100% 30.15 in 1.1 mi SSW 9.2 mph - N/A   Drizzle
8:25 AM 42.8 °F 37.5 °F 42.8 °F 100% 30.15 in 1.0 mi SSW 9.2 mph - N/A   Drizzle
8:56 AM 42.8 °F 37.5 °F 42.8 °F 100% 30.15 in 1.2 mi SSW 9.2 mph - N/A   Drizzle
9:25 AM 42.8 °F 37.5 °F 42.8 °F 100% 30.15 in 1.6 mi SSW 9.2 mph - N/A Rain Rain
9:55 AM 42.8 °F 37.5 °F 42.8 °F 100% 30.15 in - SSW 9.2 mph - N/A Rain Rain
10:00 AM 43 °F - 43 °F 100% 30.18 in 2 mi SSW 8.9 mph - - Rain Light Rain
10:25 AM 42.8 °F 37.5 °F 42.8 °F 100% 30.15 in 1.5 mi SSW 9.2 mph - N/A Rain Light Rain
10:55 AM 44.6 °F 39.7 °F 42.8 °F 93% 30.15 in 1.4 mi SSW 9.2 mph - N/A Rain Light Rain
11:02 AM 44.6 °F 39.7 °F 44.6 °F 100% 30.15 in 1.3 mi SW 9.2 mph - N/A Rain Light Rain
11:17 AM 44.6 °F 40.2 °F 44.6 °F 100% 30.15 in 1.6 mi SW 8.1 mph - N/A Rain Light Rain
11:25 AM 44.6 °F 40.2 °F 44.6 °F 100% 30.15 in - SW 8.1 mph - N/A Rain Rain
11:55 AM 44.6 °F 39.7 °F 44.6 °F 100% 30.15 in - SW 9.2 mph - N/A Rain Light Rain
12:25 PM 44.6 °F 40.2 °F 44.6 °F 100% 30.15 in 1.7 mi SW 8.1 mph - N/A   Light Drizzle
12:44 PM 44.6 °F 40.2 °F 44.6 °F 100% 30.15 in 0.9 mi SW 8.1 mph - N/A   Light Drizzle
12:55 PM 44.6 °F 40.2 °F 44.6 °F 100% 30.12 in 0.9 mi SW 8.1 mph - N/A   Light Drizzle
1:00 PM 45 °F - 45 °F 100% 30.15 in 1 mi SW 6.7 mph - - Rain Light Drizzle
1:12 PM 44.6 °F 41.4 °F 44.6 °F 100% 30.12 in 1.1 mi WSW 5.8 mph - N/A   Light Drizzle
1:25 PM 44.6 °F 42.2 °F 44.6 °F 100% 30.12 in 1.3 mi WSW 4.6 mph - N/A   Light Drizzle
1:56 PM 46.4 °F - 46.4 °F 100% 30.12 in 1.2 mi Variable 2.3 mph - N/A   Light Drizzle
2:25 PM 46.4 °F 42.4 °F 46.4 °F 100% 30.12 in 2.2 mi North 8.1 mph - N/A Rain Light Rain
2:31 PM 46.4 °F 41.9 °F 46.4 °F 100% 30.12 in 3.1 mi North 9.2 mph - N/A Rain Light Rain
2:37 PM 46.4 °F 42.4 °F 46.4 °F 100% 30.12 in 3.1 mi North 8.1 mph - N/A Rain Light Rain
2:55 PM 46.4 °F 42.4 °F 46.4 °F 100% 30.12 in 3.1 mi North 8.1 mph - N/A Rain Light Rain
3:07 PM 46.4 °F 42.4 °F 46.4 °F 100% 30.12 in 3.7 mi North 8.1 mph - N/A Rain Light Rain
3:25 PM 46.4 °F 42.9 °F 46.4 °F 100% 30.12 in 6.2 mi North 6.9 mph - N/A   Mostly Cloudy
3:56 PM 46.4 °F 43.5 °F 46.4 °F 100% 30.12 in 6.2 mi North 5.8 mph - N/A   Mostly Cloudy
4:00 PM 47 °F - 46 °F 95% 30.13 in 6 mi North 6.7 mph - - Rain Light Rain
4:25 PM 46.4 °F 42.9 °F 46.4 °F 100% 30.12 in 4.3 mi North 6.9 mph - N/A   Mostly Cloudy
4:55 PM 46.4 °F 44.3 °F 44.6 °F 93% 30.12 in 5.6 mi North 4.6 mph - N/A   Mostly Cloudy
5:25 PM 46.4 °F 42.9 °F 44.6 °F 93% 30.12 in 6.2 mi North 6.9 mph - N/A   Mostly Cloudy
5:37 PM 46.4 °F 42.9 °F 44.6 °F 93% 30.12 in 6.2 mi North 6.9 mph - N/A   Mostly Cloudy
5:42 PM 46.4 °F 42.9 °F 44.6 °F 93% 30.12 in 6.2 mi North 6.9 mph - N/A   Mostly Cloudy
5:47 PM 46.4 °F 42.9 °F 44.6 °F 93% 30.12 in 6.2 mi North 6.9 mph - N/A   Mostly Cloudy
5:56 PM 46.4 °F 42.9 °F 42.8 °F 87% 30.12 in 6.2 mi North 6.9 mph - N/A   Mostly Cloudy
5:57 PM 46.4 °F 42.9 °F 42.8 °F 87% 30.12 in 6.2 mi North 6.9 mph - N/A   Mostly Cloudy
6:12 PM 46.4 °F 42.9 °F 42.8 °F 87% 30.12 in 6.2 mi North 6.9 mph - N/A   Mostly Cloudy
6:25 PM 44.6 °F 41.4 °F 42.8 °F 93% 30.12 in 6.2 mi North 5.8 mph - N/A   Mostly Cloudy
6:56 PM 44.6 °F 41.4 °F 41.0 °F 87% 30.12 in 6.2 mi North 5.8 mph - N/A   Mostly Cloudy
7:00 PM 45 °F - 42 °F 85% 30.13 in 8 mi North 6.7 mph - -   Partly Cloudy
7:25 PM 42.8 °F 41.1 °F 39.2 °F 87% 30.12 in 6.2 mi Variable 3.5 mph - N/A   Partly Cloudy
7:55 PM 42.8 °F - 39.2 °F 87% 30.12 in 6.2 mi Variable 2.3 mph - N/A   Partly Cloudy
8:25 PM 41.0 °F - 39.2 °F 93% 30.12 in 6.2 mi Variable 2.3 mph - N/A   Partly Cloudy
8:55 PM 41.0 °F - 39.2 °F 93% 30.12 in 6.2 mi Variable 1.2 mph - N/A   Partly Cloudy
8:57 PM 41.0 °F - 39.2 °F 93% 30.12 in 6.2 mi Variable 1.2 mph - N/A   Scattered Clouds
9:25 PM 41.0 °F - 39.2 °F 93% 30.09 in 6.2 mi Variable 2.3 mph - N/A   Scattered Clouds
9:55 PM 39.2 °F - 37.4 °F 93% 30.09 in 5.6 mi Variable 1.2 mph - N/A   Partly Cloudy
10:00 PM 40 °F - 38 °F 88% 30.12 in 6 mi 2.2 mph - -   Scattered Clouds
10:25 PM 39.2 °F - 37.4 °F 93% 30.09 in 5.0 mi Variable 1.2 mph - N/A   Partly Cloudy
10:40 PM 39.2 °F - 37.4 °F 93% 30.09 in 4.3 mi Calm Calm - N/A   Clear
10:55 PM 37.4 °F - 35.6 °F 93% 30.09 in 3.7 mi Calm Calm - N/A   Clear
11:10 PM 37.4 °F - 37.4 °F 100% 30.09 in 5.0 mi Calm Calm - N/A   Clear
11:22 PM 37.4 °F - 35.6 °F 93% 30.09 in 4.3 mi Calm Calm - N/A   Clear
11:25 PM 37.4 °F - 35.6 °F 93% 30.09 in 4.3 mi Calm Calm - N/A   Clear
11:52 PM 35.6 °F - 35.6 °F 100% 30.09 in - Variable 1.2 mph - N/A   Clear
11:55 PM 35.6 °F - 35.6 °F 100% 30.09 in - Variable 2.3 mph - N/A   Clear
11:56 PM 35.6 °F - 35.6 °F 100% 30.09 in 2.2 mi Variable 2.3 mph - N/A   Clear